Location: Dalton
(34.7700°N, 84.9700°W)
Time: 18:00:00
(UTC-05:00)

OTV 5 (USA 277) - Pass Details

Date: 12 October 2017
Orbit: 404 x 417 km, 43.0° (Epoch: 07 September)

Event Time Altitude Azimuth Distance (km) Brightness Sun altitude
Rises 21:13:27 0° 286° (WNW) 2,352 ? -26.4°
Reaches altitude 10° 21:15:56 10° 304° (NW) 1,489 ? -26.9°
Enters shadow 21:17:10 16° 322° (NW) 1,165 ? -27.1°
